�N����,����,�g�[���i�䏊�j���x,�g�[�����x,��g�[���i���ցj���x,����
 2003/11/01, 0:00,22.3,56,19.3,19.1
 2003/11/01, 0:15,22.2,55,19.2,19.1
 2003/11/01, 0:30,22.3,54,19.2,19.2
 2003/11/01, 0:45,22.4,54,19.2,19.2
 2003/11/01, 1:00,22.1,54,19.2,19.2
 2003/11/01, 1:15,22.3,54,19.3,19.2
 2003/11/01, 1:30,22.1,55,19.2,19
 2003/11/01, 1:45,22.1,54,19.2,19
 2003/11/01, 2:00,22.1,55,19.1,19
 2003/11/01, 2:15,21.9,55,19.1,19
 2003/11/01, 2:30,22.1,55,19.1,19
 2003/11/01, 2:45,22,55,19.1,19.1
 2003/11/01, 3:00,21.8,56,19.1,19.1
 2003/11/01, 3:15,22,55,19.1,19.1
 2003/11/01, 3:30,21.7,56,19.1,19.1
 2003/11/01, 3:45,21.7,56,18.9,19.1
 2003/11/01, 4:00,21.7,56,19,19.2
 2003/11/01, 4:15,21.5,57,18.9,18.8
 2003/11/01, 4:30,21.6,59,19,18.8
 2003/11/01, 4:45,21.5,59,18.8,18.8
 2003/11/01, 5:00,21.5,58,18.9,19.7
 2003/11/01, 5:15,21.6,57,18.7,19.7
 2003/11/01, 5:30,21.3,57,18.7,19.7
 2003/11/01, 5:45,21.3,56,18.5,19.7
 2003/11/01, 6:00,21.1,56,18.5,19.7
 2003/11/01, 6:15,21.1,57,18.5,19.7
 2003/11/01, 6:30,21.2,56,18.4,19.4
 2003/11/01, 6:45,21.2,69,18.3,19.3
 2003/11/01, 7:00,21.3,63,18.3,19.4
 2003/11/01, 7:15,21.4,61,18.4,19.5
 2003/11/01, 7:30,21.6,60,18.5,19.6
 2003/11/01, 7:45,21.7,58,18.5,19.6
 2003/11/01, 8:00,21.6,57,18.9,19.6
 2003/11/01, 8:15,21.5,58,19.1,19.6
 2003/11/01, 8:30,21.8,57,19.3,19.7
 2003/11/01, 8:45,21.6,56,19.5,19.7
 2003/11/01, 9:00,21.7,57,19.7,19.7
 2003/11/01, 9:15,21.8,56,20.1,19.4
 2003/11/01, 9:30,21.7,55,20.2,19.5
 2003/11/01, 9:45,21.9,56,20.4,19.5
 2003/11/01,10:00,22.1,56,20.8,19.5
 2003/11/01,10:15,21.9,56,20.8,19.5
 2003/11/01,10:30,22.2,55,20.9,19.6
 2003/11/01,10:45,22.3,55,21.1,19.4
 2003/11/01,11:00,22.2,57,21.1,19.7
 2003/11/01,11:15,22.4,56,21.2,19.8
 2003/11/01,11:30,22.4,58,21.4,19.7
 2003/11/01,11:45,22.5,59,21.6,19.7
 2003/11/01,12:00,23.2,69,21.6,19.8
 2003/11/01,12:15,23.5,71,21.6,19.8
 2003/11/01,12:30,23.3,70,21.6,19.8
 2003/11/01,12:45,23.7,63,21.6,19.4
 2003/11/01,13:00,23.5,61,21.7,19.6
 2003/11/01,13:15,23.4,62,21.7,19.6
 2003/11/01,13:30,23.5,61,21.9,19.4
 2003/11/01,13:45,23.7,63,22,19.3
 2003/11/01,14:00,23.5,61,22.1,19.4
 2003/11/01,14:15,23.5,59,22.1,19.4
 2003/11/01,14:30,23.6,58,22.2,19.5
 2003/11/01,14:45,23.5,59,22.3,19.5
 2003/11/01,15:00,23.7,58,22.3,19.5
 2003/11/01,15:15,23.9,57,22.4,19.6
 2003/11/01,15:30,24,56,22.5,19.2
 2003/11/01,15:45,23.9,55,22.5,19.2
 2003/11/01,16:00,23.8,54,22.5,19.3
 2003/11/01,16:15,24.1,53,22.6,19.1
 2003/11/01,16:30,24.4,52,22.6,19.4
 2003/11/01,16:45,24.3,51,22.6,19.5
 2003/11/01,17:00,24.2,52,22.5,19.5
 2003/11/01,17:15,24.3,52,22.3,19.6
 2003/11/01,17:30,24,53,22.2,19.6
 2003/11/01,17:45,24,53,22,19.7
 2003/11/01,18:00,24,53,21.8,19.7
 2003/11/01,18:15,23.7,53,21.6,19.7
 2003/11/01,18:30,23.7,53,21.5,19.8
 2003/11/01,18:45,23.6,52,21.3,19.8
 2003/11/01,19:00,23.4,53,21.2,19.9
 2003/11/01,19:15,23.4,52,21,19.9
 2003/11/01,19:30,23.3,52,20.9,20
 2003/11/01,19:45,23.1,53,20.8,20
 2003/11/01,20:00,23.2,52,20.7,20.1
 2003/11/01,20:15,23,52,20.6,20.1
 2003/11/01,20:30,22.8,53,20.5,20.1
 2003/11/01,20:45,23,52,20.5,19.4
 2003/11/01,21:00,22.9,53,20.4,19.6
 2003/11/01,21:15,22.8,54,20.4,19.7
 2003/11/01,21:30,23.2,54,20.3,19.8
 2003/11/01,21:45,23.1,55,20.2,19.5
 2003/11/01,22:00,23.2,59,20.2,19.6
 2003/11/01,22:15,23.4,55,20.3,19.6
 2003/11/01,22:30,23.3,54,20.3,19.6
 2003/11/01,22:45,23.1,55,20.2,19.7
 2003/11/01,23:00,23.3,55,20.1,19.7
 2003/11/01,23:15,23.2,55,20.3,19.4
 2003/11/01,23:30,23,55,20.2,19.4
 2003/11/01,23:45,23.1,54,20.2,19.5
 2003/11/02, 0:00,22.9,55,20.2,19.5
 2003/11/02, 0:15,22.8,56,20,19.5
 2003/11/02, 0:30,22.9,55,20.1,19.6
 2003/11/02, 0:45,22.7,56,20,19.6
 2003/11/02, 1:00,22.8,56,20,19.6
 2003/11/02, 1:15,22.8,56,19.9,19.7
 2003/11/02, 1:30,22.6,56,19.9,19.7
 2003/11/02, 1:45,22.6,56,19.8,19.7
 2003/11/02, 2:00,22.6,56,19.9,19.8
 2003/11/02, 2:15,22.4,57,19.7,19.8
 2003/11/02, 2:30,22.5,56,19.8,19.8
 2003/11/02, 2:45,22.5,57,19.8,19.9
 2003/11/02, 3:00,22.3,57,19.8,19.2
 2003/11/02, 3:15,22.4,57,19.7,19.2
 2003/11/02, 3:30,22.2,57,19.8,19.3
 2003/11/02, 3:45,22.2,57,20,19.3
 2003/11/02, 4:00,22.3,56,19.9,19.3
 2003/11/02, 4:15,22,57,19.9,19.4
 2003/11/02, 4:30,22.1,57,20,19.4
 2003/11/02, 4:45,22.2,57,20,19.4
 2003/11/02, 5:00,22,58,19.9,19.5
 2003/11/02, 5:15,22,58,20,19.6
 2003/11/02, 5:30,22.1,58,19.9,19.6
 2003/11/02, 5:45,21.9,58,20,19.6
 2003/11/02, 6:00,22,57,20,19.7
 2003/11/02, 6:15,22,57,19.8,19.1
 2003/11/02, 6:30,22.6,77,19.9,19.2
 2003/11/02, 6:45,23,75,19.9,19.5
 2003/11/02, 7:00,23.1,72,20,19.6
 2003/11/02, 7:15,22.9,70,20,19.7
 2003/11/02, 7:30,22.8,67,20.1,19.5
 2003/11/02, 7:45,22.8,67,20.2,19.5
 2003/11/02, 8:00,23,65,20.2,19.5
 2003/11/02, 8:15,23.2,63,20.3,19.6
 2003/11/02, 8:30,23.2,62,20.5,19.6
 2003/11/02, 8:45,23.3,61,20.6,19.7
 2003/11/02, 9:00,23.2,60,20.8,19.2
 2003/11/02, 9:15,23.2,61,20.8,19.3
 2003/11/02, 9:30,23.5,61,21,19.3
 2003/11/02, 9:45,23.4,61,21.1,19.8
 2003/11/02,10:00,23.5,61,21.2,19.7
 2003/11/02,10:15,23.6,61,21.3,19.8
 2003/11/02,10:30,24,62,21.5,19.8
 2003/11/02,10:45,23.9,60,21.6,19.8
 2003/11/02,11:00,23.8,59,21.6,19.9
 2003/11/02,11:15,23.6,59,21.7,19.9
 2003/11/02,11:30,23.7,59,21.7,19.9
 2003/11/02,11:45,23.6,59,21.8,20
 2003/11/02,12:00,23.6,58,21.8,20
 2003/11/02,12:15,23.7,58,21.9,20.1
 2003/11/02,12:30,23.6,59,21.9,19.4
 2003/11/02,12:45,23.7,59,21.9,19.5
 2003/11/02,13:00,23.8,60,21.9,19.6
 2003/11/02,13:15,23.7,60,22,19.6
 2003/11/02,13:30,23.9,60,22,19.4
 2003/11/02,13:45,23.8,60,21.9,19.4
 2003/11/02,14:00,23.7,61,22,19.5
 2003/11/02,14:15,23.8,60,22,19.5
 2003/11/02,14:30,23.7,61,22.2,19.6
 2003/11/02,14:45,23.8,60,22.2,19.6
 2003/11/02,15:00,23.9,59,22.3,19.7
 2003/11/02,15:15,23.8,60,22.3,19.7
 2003/11/02,15:30,23.9,60,22.3,19.8
 2003/11/02,15:45,24,59,22.4,19.8
 2003/11/02,16:00,23.8,60,22.4,19.8
 2003/11/02,16:15,24,60,22.4,19.9
 2003/11/02,16:30,23.8,60,22.3,19.9
 2003/11/02,16:45,23.8,60,21.9,20
 2003/11/02,17:00,24,59,22.2,19.6
 2003/11/02,17:15,24,59,22.2,19.7
 2003/11/02,17:30,23.9,63,22.1,19.9
 2003/11/02,17:45,24.2,73,22.1,19.9
 2003/11/02,18:00,24.4,63,22,20
 2003/11/02,18:15,24.1,63,22,19.9
 2003/11/02,18:30,25.2,71,22,19.9
 2003/11/02,18:45,25.6,70,21.8,19.9
 2003/11/02,19:00,25.3,71,21.7,20
 2003/11/02,19:15,25.1,66,21.7,19.9
 2003/11/02,19:30,25.2,66,21.6,20
 2003/11/02,19:45,24.8,61,21.7,19.9
 2003/11/02,20:00,24.8,60,21.7,19.9
 2003/11/02,20:15,24.9,61,21.6,20.1
 2003/11/02,20:30,24.8,65,21.7,19.9
 2003/11/02,20:45,25,73,21.7,19.9
 2003/11/02,21:00,25.1,71,21.7,19.9
 2003/11/02,21:15,25.2,70,21.6,20
 2003/11/02,21:30,25.2,66,21.6,19.8
 2003/11/02,21:45,25.1,64,21.6,19.8
 2003/11/02,22:00,25,64,21.7,19.6
 2003/11/02,22:15,25,64,21.5,19.7
 2003/11/02,22:30,25.4,64,21.6,19.8
 2003/11/02,22:45,25.4,63,21.6,19.9
 2003/11/02,23:00,25.5,62,21.6,19.9
 2003/11/02,23:15,25.5,61,21.6,19.6
 2003/11/02,23:30,25.5,61,21.5,19.7
 2003/11/02,23:45,25.4,60,21.5,19.7
 2003/11/03, 0:00,25.2,61,21.3,19.8
 2003/11/03, 0:15,25,61,21.3,19.8
 2003/11/03, 0:30,25,60,21.3,19.9
 2003/11/03, 0:45,25,60,21.3,19.6
 2003/11/03, 1:00,24.7,61,21.3,19.6
 2003/11/03, 1:15,24.7,61,21.3,19.7
 2003/11/03, 1:30,24.8,60,21.3,19.7
 2003/11/03, 1:45,24.5,62,21.3,19.8
 2003/11/03, 2:00,24.5,62,21.2,19.8
 2003/11/03, 2:15,24.6,61,21.2,19.9
 2003/11/03, 2:30,24.4,64,21.3,19.5
 2003/11/03, 2:45,24.3,64,21.2,19.6
 2003/11/03, 3:00,24.4,63,21.2,19.6
 2003/11/03, 3:15,24.4,62,21.2,19.7
 2003/11/03, 3:30,24.1,63,21.1,19.7
 2003/11/03, 3:45,24.2,61,21,19.4
 2003/11/03, 4:00,24.2,63,21,19.5
 2003/11/03, 4:15,24,64,21.1,19.5
 2003/11/03, 4:30,24.1,63,21.1,19.6
 2003/11/03, 4:45,24.2,72,21,19.6
 2003/11/03, 5:00,24,66,21.1,19.7
 2003/11/03, 5:15,24.3,66,21.2,19.4
 2003/11/03, 5:30,24.6,70,21.2,19.5
 2003/11/03, 5:45,24.6,74,21.3,19.8
 2003/11/03, 6:00,24.5,69,21.3,19.8
 2003/11/03, 6:15,24.4,68,21.4,19.9
 2003/11/03, 6:30,24.2,66,21.2,19.9
 2003/11/03, 6:45,24.1,66,21.3,19.9
 2003/11/03, 7:00,24.1,65,21.3,20
 2003/11/03, 7:15,23.9,66,21.2,20
 2003/11/03, 7:30,23.9,66,21.3,20.1
 2003/11/03, 7:45,23.9,65,21.3,20.1
 2003/11/03, 8:00,23.7,66,21.3,20.2
 2003/11/03, 8:15,23.7,66,21.4,20.2
 2003/11/03, 8:30,23.8,66,21.4,20.3
 2003/11/03, 8:45,23.5,67,21.4,20.3
 2003/11/03, 9:00,23.7,66,21.5,20.4
 2003/11/03, 9:15,23.7,66,21.5,20.4
 2003/11/03, 9:30,23.5,67,21.6,20.4
 2003/11/03, 9:45,23.6,67,21.5,20.5
 2003/11/03,10:00,23.6,67,21.6,20.5
 2003/11/03,10:15,23.4,68,21.7,20.6
 2003/11/03,10:30,23.6,67,21.5,20.6
 2003/11/03,10:45,23.5,66,21.5,20.6
 2003/11/03,11:00,23.3,68,21.6,20.7
 2003/11/03,11:15,23.5,67,21.6,20.7
 2003/11/03,11:30,23.6,66,21.6,20.7
 2003/11/03,11:45,23.7,65,21.7,20.8
 2003/11/03,12:00,23.4,66,21.7,20.8
 2003/11/03,12:15,23.3,67,21.7,20.9
 2003/11/03,12:30,23.7,65,21.6,20.9
 2003/11/03,12:45,23.7,65,21.6,20.9
 2003/11/03,13:00,23.5,66,21.6,20.9
 2003/11/03,13:15,23.6,65,21.6,21
 2003/11/03,13:30,23.6,65,21.5,21
 2003/11/03,13:45,23.4,66,21.7,21
 2003/11/03,14:00,23.6,65,21.7,21.1
 2003/11/03,14:15,23.4,66,21.6,21.1
 2003/11/03,14:30,23.3,67,21.6,21.1
 2003/11/03,14:45,23.5,67,21.6,21.1
 2003/11/03,15:00,23.3,68,21.6,21.2
 2003/11/03,15:15,23.4,68,21.6,21.2
 2003/11/03,15:30,23.4,67,21.5,21.2
 2003/11/03,15:45,23.2,69,21.6,21.3
 2003/11/03,16:00,23.3,68,21.6,21.3
 2003/11/03,16:15,23.3,68,21.6,21.3
 2003/11/03,16:30,23.1,69,21.4,21.3
 2003/11/03,16:45,23.3,68,21.5,21.4
 2003/11/03,17:00,23.2,69,21.3,21.4
 2003/11/03,17:15,23.1,69,21.3,21.4
 2003/11/03,17:30,23.2,67,21.2,21.4
 2003/11/03,17:45,23,69,21.2,21.4
 2003/11/03,18:00,23,68,21.1,20.1
 2003/11/03,18:15,23,67,21,20.1
 2003/11/03,18:30,23,67,20.9,20.1
 2003/11/03,18:45,23.2,73,20.7,20.2
 2003/11/03,19:00,23.3,71,20.8,20.2
 2003/11/03,19:15,23.5,75,20.8,20.3
 2003/11/03,19:30,23.6,71,20.7,20.3
 2003/11/03,19:45,23.7,68,20.6,20.4
 2003/11/03,20:00,23.6,67,20.5,20.4
 2003/11/03,20:15,23.4,66,20.5,19.8
 2003/11/03,20:30,23.6,65,20.5,19.9
 2003/11/03,20:45,23.7,64,20.5,19.8
 2003/11/03,21:00,23.6,65,20.5,19.8
 2003/11/03,21:15,23.6,64,20.5,19.9
 2003/11/03,21:30,23.7,67,20.5,19.9
 2003/11/03,21:45,23.9,70,20.6,19.9
 2003/11/03,22:00,24.2,68,20.7,20
 2003/11/03,22:15,24,65,20.7,20.1
 2003/11/03,22:30,24.1,65,20.8,20.1
 2003/11/03,22:45,23.9,66,20.7,20.2
 2003/11/03,23:00,24,70,20.8,19.8
 2003/11/03,23:15,24,67,20.7,19.8
 2003/11/03,23:30,24,67,20.6,19.9
 2003/11/03,23:45,24,66,20.6,19.8
 2003/11/04, 0:00,24,65,20.5,19.9
 2003/11/04, 0:15,23.8,66,20.5,19.9
 2003/11/04, 0:30,23.7,65,20.4,20
 2003/11/04, 0:45,23.8,65,20.3,20
 2003/11/04, 1:00,23.5,66,20.2,20
 2003/11/04, 1:15,23.5,66,20.1,20.1
 2003/11/04, 1:30,23.5,65,20.1,20.1
 2003/11/04, 1:45,23.6,65,20.1,19.7
 2003/11/04, 2:00,23.4,65,20,19.7
 2003/11/04, 2:15,23.2,66,20,19.7
 2003/11/04, 2:30,23.2,65,20,19.8
 2003/11/04, 2:45,23.3,64,20,19.8
 2003/11/04, 3:00,23.4,63,20,19.8
 2003/11/04, 3:15,23.1,64,20,19.9
 2003/11/04, 3:30,23.2,64,20,19.9
 2003/11/04, 3:45,23.1,64,20,19.9
 2003/11/04, 4:00,23,64,20,20
 2003/11/04, 4:15,23.1,64,20,20
 2003/11/04, 4:30,22.9,64,20,20
 2003/11/04, 4:45,22.9,64,20,20.1
 2003/11/04, 5:00,22.8,63,19.9,20.1
 2003/11/04, 5:15,22.6,63,19.7,20.1
 2003/11/04, 5:30,22.7,63,19.6,20.2
 2003/11/04, 5:45,22.6,64,19.6,19.6
 2003/11/04, 6:00,22.4,59,19.6,19.6
 2003/11/04, 6:15,22.7,61,19.4,19.7
 2003/11/04, 6:30,22.7,60,19.3,19.8
 2003/11/04, 6:45,22.6,54,19.2,19.8
 2003/11/04, 7:00,22.5,52,19.2,19.8
 2003/11/04, 7:15,22.2,53,19,19.9
 2003/11/04, 7:30,22.2,54,19,19.7
 2003/11/04, 7:45,22.2,53,19,19.7
 2003/11/04, 8:00,21.9,51,19,19.8
 2003/11/04, 8:15,21.9,50,19,19.8
 2003/11/04, 8:30,21.9,50,19.1,19.8
 2003/11/04, 8:45,21.8,48,19.2,19.9
 2003/11/04, 9:00,21.7,45,19.2,19.9
 2003/11/04, 9:15,21.5,47,19.2,19.9
 2003/11/04, 9:30,21.8,55,19.3,19.8
 2003/11/04, 9:45,21.7,51,19.4,19.8
 2003/11/04,10:00,21.6,51,19.4,19.8
 2003/11/04,10:15,21.7,50,19.6,19.8
 2003/11/04,10:30,21.6,51,19.6,19.8
 2003/11/04,10:45,21.6,51,19.6,19.9
 2003/11/04,11:00,21.7,50,19.6,19.9
 2003/11/04,11:15,21.5,51,19.6,19.9
 2003/11/04,11:30,21.5,51,19.6,19.9
 2003/11/04,11:45,21.5,51,19.7,19.9
 2003/11/04,12:00,21.4,51,19.8,19.9
 2003/11/04,12:15,21.6,51,19.8,19.9
 2003/11/04,12:30,21.4,52,20,19.9
 2003/11/04,12:45,21.5,51,20,19.9
 2003/11/04,13:00,21.5,51,20.1,19.9
 2003/11/04,13:15,21.5,51,20.1,20
 2003/11/04,13:30,21.6,51,20.1,20
 2003/11/04,13:45,21.5,51,20.1,20
 2003/11/04,14:00,21.4,52,20,20
 2003/11/04,14:15,21.6,51,20.1,20
 2003/11/04,14:30,21.4,51,20.1,20
 2003/11/04,14:45,21.5,51,20.1,20
 2003/11/04,15:00,21.5,51,20.1,20.1
 2003/11/04,15:15,21.4,51,20,20.1
 2003/11/04,15:30,21.5,51,20,19.7
 2003/11/04,15:45,21.5,50,20.1,19.7
 2003/11/04,16:00,21.6,53,20.1,19.7
 2003/11/04,16:15,21.7,51,20,19.8
 2003/11/04,16:30,21.6,51,20,19.4
 2003/11/04,16:45,21.6,51,19.7,19.4
 2003/11/04,17:00,21.7,49,19.7,19.5
 2003/11/04,17:15,21.5,50,19.5,19.5
 2003/11/04,17:30,21.8,50,19.4,19.5
 2003/11/04,17:45,22.2,52,19.4,19.5
 2003/11/04,18:00,22.5,59,19.3,19.6
 2003/11/04,18:15,22.1,51,19.2,19.6
 2003/11/04,18:30,21.9,50,18.9,19.6
 2003/11/04,18:45,22.1,49,18.6,19.6
 2003/11/04,19:00,22.1,62,18.6,19.8
 2003/11/04,19:15,22.1,52,18.5,19.7
 2003/11/04,19:30,22,52,18.4,19.8
 2003/11/04,19:45,22.6,65,18.3,19.8
 2003/11/04,20:00,22.5,63,18.1,19.8
 2003/11/04,20:15,22.4,59,18.1,19.8
 2003/11/04,20:30,22.8,57,18.1,19.7
 2003/11/04,20:45,22.6,59,17.9,19.8
 2003/11/04,21:00,22.5,57,17.9,19.9
 2003/11/04,21:15,22.2,53,17.8,19.9
 2003/11/04,21:30,22,53,17.7,19.9
 2003/11/04,21:45,22.1,53,17.5,19.9
 2003/11/04,22:00,21.7,53,17.5,19.4
 2003/11/04,22:15,21.6,52,17.3,19.4
 2003/11/04,22:30,21.5,52,17.4,19.4
 2003/11/04,22:45,21.2,52,17.3,19.4
 2003/11/04,23:00,21.2,53,17.2,19.4
 2003/11/04,23:15,21,54,17.1,19.4
 2003/11/04,23:30,20.8,58,17,19.2
 2003/11/04,23:45,20.8,58,16.9,19.2
 2003/11/05, 0:00,20.6,58,16.8,19.3
 2003/11/05, 0:15,20.6,57,16.7,19.3
 2003/11/05, 0:30,20.5,55,16.7,19.3
 2003/11/05, 0:45,20.3,55,16.6,19.3
 2003/11/05, 1:00,20.4,54,16.5,19.3
 2003/11/05, 1:15,20.1,55,16.5,19.3
 2003/11/05, 1:30,20.2,55,16.4,19
 2003/11/05, 1:45,20.1,56,16.3,19
 2003/11/05, 2:00,20,57,16.2,19
 2003/11/05, 2:15,20.1,56,16.1,19.1
 2003/11/05, 2:30,19.9,57,16,19.1
 2003/11/05, 2:45,19.9,56,16,19.1
 2003/11/05, 3:00,19.8,57,15.9,19.1
 2003/11/05, 3:15,19.7,57,15.9,19.1
 2003/11/05, 3:30,19.7,57,15.7,19.1
 2003/11/05, 3:45,19.5,57,15.7,19.1
 2003/11/05, 4:00,19.5,57,15.7,19.1
 2003/11/05, 4:15,19.4,57,15.6,19.1
 2003/11/05, 4:30,19.3,57,15.4,19.1
 2003/11/05, 4:45,19.3,57,15.4,19
 2003/11/05, 5:00,19.2,58,15.3,19
 2003/11/05, 5:15,19.1,57,15.3,19
 2003/11/05, 5:30,19,58,15.3,19
 2003/11/05, 5:45,19,58,15.2,19
 2003/11/05, 6:00,18.9,58,15.1,19
 2003/11/05, 6:15,18.9,61,15.1,18.7
 2003/11/05, 6:30,19,60,15.1,19.3
 2003/11/05, 6:45,19.1,61,15,19.5
 2003/11/05, 7:00,19.4,63,15.1,19.4
 2003/11/05, 7:15,19.7,61,15.1,19.4
 2003/11/05, 7:30,19.7,60,15.3,19.4
 2003/11/05, 7:45,19.4,60,15.5,19.7
 2003/11/05, 8:00,19.3,59,15.7,19.5
 2003/11/05, 8:15,19.4,59,15.9,19.5
 2003/11/05, 8:30,19.2,59,16.1,19.4
 2003/11/05, 8:45,19.5,67,16.4,19.5
 2003/11/05, 9:00,19.3,62,16.8,19.5
 2003/11/05, 9:15,19.3,59,17.1,19.5
 2003/11/05, 9:30,19.4,58,17.5,19.4
 2003/11/05, 9:45,19.3,58,17.8,19.2
 2003/11/05,10:00,19.5,57,18.1,19.2
 2003/11/05,10:15,19.6,56,18.2,19.2
 2003/11/05,10:30,19.6,56,18.3,19.2
 2003/11/05,10:45,19.5,58,18.4,19.2
 2003/11/05,11:00,19.6,58,18.4,19.2
 2003/11/05,11:15,19.9,57,18.6,19.2
 2003/11/05,11:30,20.1,56,18.7,19.2
 2003/11/05,11:45,20.1,56,18.8,19.2
 2003/11/05,12:00,20.3,56,19,19.2
 2003/11/05,12:15,20.3,56,19.1,19.2
 2003/11/05,12:30,20.4,56,19.2,19.2
 2003/11/05,12:45,20.5,56,19.3,19.2
 2003/11/05,13:00,20.6,55,19.4,19.2
 2003/11/05,13:15,20.7,55,19.5,19.2
 2003/11/05,13:30,20.7,55,19.7,19.2
 2003/11/05,13:45,21,55,19.7,19.2
 2003/11/05,14:00,20.9,56,19.9,19.2
 2003/11/05,14:15,21.1,56,19.9,19.2
 2003/11/05,14:30,21.1,55,20,19.3
 2003/11/05,14:45,21.1,55,20,19.3
 2003/11/05,15:00,21.4,55,20.1,19.3
 2003/11/05,15:15,21.3,56,20.1,19.3
 2003/11/05,15:30,21.6,55,20.2,18.9
 2003/11/05,15:45,21.5,55,20.3,18.9
 2003/11/05,16:00,21.5,55,20.4,18.9
 2003/11/05,16:15,21.6,55,20.4,19
 2003/11/05,16:30,21.6,57,20.5,19
 2003/11/05,16:45,21.8,56,20.4,19
 2003/11/05,17:00,21.6,57,20.5,18.9
 2003/11/05,17:15,21.6,57,20.5,19.1
 2003/11/05,17:30,21.6,57,20.5,19.1
 2003/11/05,17:45,21.8,65,20.5,19.1
 2003/11/05,18:00,22.2,60,20.4,19.2
 2003/11/05,18:15,22.2,60,20.4,19.6
 2003/11/05,18:30,22.4,61,20.4,19.6
 2003/11/05,18:45,22.5,63,20.3,19.7
 2003/11/05,19:00,22.4,61,20.3,19.6
 2003/11/05,19:15,22.5,60,20.3,19.6
 2003/11/05,19:30,22.4,60,20.3,19.7
 2003/11/05,19:45,22.4,60,20.2,19.7
 2003/11/05,20:00,22.4,59,20.2,19.7
 2003/11/05,20:15,22.5,65,20.2,19.9
 2003/11/05,20:30,22.7,64,20.2,19.9
 2003/11/05,20:45,22.5,63,20.2,19.7
 2003/11/05,21:00,22.6,63,20.3,19.7
 2003/11/05,21:15,22.7,63,20.1,19.7
 2003/11/05,21:30,22.9,67,20.1,19.7
 2003/11/05,21:45,23.2,71,20,19.6
 2003/11/05,22:00,23.1,69,19.9,19.6
 2003/11/05,22:15,23.2,74,20,19.6
 2003/11/05,22:30,23.2,70,19.9,19.6
 2003/11/05,22:45,23,70,20,19.7
 2003/11/05,23:00,23.2,69,19.9,19.7
 2003/11/05,23:15,23.2,67,19.9,19.5
 2003/11/05,23:30,23,68,19.8,19.5
 2003/11/05,23:45,23.1,66,19.8,19.5
 2003/11/06, 0:00,23,65,19.7,19.6
 2003/11/06, 0:15,23,64,19.6,19.6
 2003/11/06, 0:30,22.9,64,19.6,19.6
 2003/11/06, 0:45,22.7,64,19.6,19.6
 2003/11/06, 1:00,22.8,63,19.6,19.2
 2003/11/06, 1:15,22.6,63,19.6,19.3
 2003/11/06, 1:30,22.6,63,19.4,19.3
 2003/11/06, 1:45,22.6,62,19.3,19.3
 2003/11/06, 2:00,22.4,63,19.3,19.4
 2003/11/06, 2:15,22.4,62,19.3,19.4
 2003/11/06, 2:30,22.4,61,19.3,19.4
 2003/11/06, 2:45,22.5,61,19.2,19.5
 2003/11/06, 3:00,22.3,62,19.2,19.4
 2003/11/06, 3:15,22,62,19.2,19.1
 2003/11/06, 3:30,22.2,61,19.2,19.1
 2003/11/06, 3:45,22.3,60,19.2,19.1
 2003/11/06, 4:00,22.1,61,19.2,19.2
 2003/11/06, 4:15,22.1,61,19.1,19.2
 2003/11/06, 4:30,22,61,19.1,19.2
 2003/11/06, 4:45,21.9,62,19.1,19.3
 2003/11/06, 5:00,21.9,61,19.1,19.3
 2003/11/06, 5:15,21.8,62,19.1,19.3
 2003/11/06, 5:30,21.8,61,19.1,19.4
 2003/11/06, 5:45,21.7,61,19.1,19.4
 2003/11/06, 6:00,21.6,62,19.1,19
 2003/11/06, 6:15,21.8,69,19.2,19
 2003/11/06, 6:30,21.8,64,19.1,19.2
 2003/11/06, 6:45,22,64,19.1,19.6
 2003/11/06, 7:00,22,65,19.1,19.5
 2003/11/06, 7:15,21.9,66,19.2,19.8
 2003/11/06, 7:30,22.2,68,19.2,19.8
 2003/11/06, 7:45,22,67,19.3,19.7
 2003/11/06, 8:00,22,66,19.3,19.8
 2003/11/06, 8:15,21.9,66,19.3,19.9
 2003/11/06, 8:30,21.8,66,19.5,19.6
 2003/11/06, 8:45,22,74,19.4,19.6
 2003/11/06, 9:00,21.9,69,19.6,19.7
 2003/11/06, 9:15,21.9,68,19.6,19.7
 2003/11/06, 9:30,22,67,19.7,19.8
 2003/11/06, 9:45,21.8,68,19.9,19.4
 2003/11/06,10:00,21.9,66,20,19.4
 2003/11/06,10:15,21.9,66,20,19.5
 2003/11/06,10:30,21.9,66,20.1,19.5
 2003/11/06,10:45,22.1,65,20.2,19.5
 2003/11/06,11:00,21.8,66,20.4,19.6
 2003/11/06,11:15,22,65,20.3,19.6
 2003/11/06,11:30,22,65,20.4,19.6
 2003/11/06,11:45,22,65,20.5,19.6
 2003/11/06,12:00,22.1,64,20.6,19.7
 2003/11/06,12:15,22.1,65,20.6,19.7
 2003/11/06,12:30,22.1,64,20.7,19.7
 2003/11/06,12:45,22.1,64,20.7,19.7
 2003/11/06,13:00,22,65,20.7,19.8
 2003/11/06,13:15,22.2,64,20.8,19.8
 2003/11/06,13:30,22.1,64,20.9,19.8
 2003/11/06,13:45,22.2,64,20.9,19.8
 2003/11/06,14:00,22.3,63,20.9,19.9
 2003/11/06,14:15,22.1,64,20.9,19.9
 2003/11/06,14:30,22.3,64,20.9,19.3
 2003/11/06,14:45,22.3,64,20.9,19.3
 2003/11/06,15:00,22.3,64,21,19.4
 2003/11/06,15:15,22.5,64,21,19.4
 2003/11/06,15:30,22.4,64,21,19.3
 2003/11/06,15:45,22.5,65,21,19.3
 2003/11/06,16:00,22.6,64,21,19.4
 2003/11/06,16:15,22.5,65,21,19.4
 2003/11/06,16:30,22.6,64,21,19.4
 2003/11/06,16:45,22.7,64,21,19.8
 2003/11/06,17:00,22.4,65,20.9,19.8
 2003/11/06,17:15,22.6,64,20.8,19.8
 2003/11/06,17:30,22.6,66,20.7,19.9
 2003/11/06,17:45,22.6,75,20.7,19.9
 2003/11/06,18:00,22.9,72,20.6,19.9
 2003/11/06,18:15,22.9,68,20.6,19.9
 2003/11/06,18:30,22.9,67,20.6,20
 2003/11/06,18:45,23,72,20.5,19.9
 2003/11/06,19:00,23.2,72,20.4,19.9
 2003/11/06,19:15,23.5,67,20.4,20
 2003/11/06,19:30,23.5,66,20.4,20
 2003/11/06,19:45,23.4,67,20.4,20
 2003/11/06,20:00,23.4,66,20.5,20
 2003/11/06,20:15,23.8,76,20.6,20
 2003/11/06,20:30,24,81,20.6,20
 2003/11/06,20:45,23.8,75,20.6,20.1
 2003/11/06,21:00,23.8,71,20.5,20.1
 2003/11/06,21:15,23.8,67,20.5,19.9
 2003/11/06,21:30,23.7,67,20.5,19.9
 2003/11/06,21:45,23.7,68,20.5,19.9
 2003/11/06,22:00,23.9,72,20.5,19.7
 2003/11/06,22:15,23.8,71,20.4,19.7
 2003/11/06,22:30,23.8,71,20.3,19.8
 2003/11/06,22:45,24,72,20.3,19.8
 2003/11/06,23:00,23.8,71,20.2,19.8
 2003/11/06,23:15,23.6,70,20.3,19.6
 2003/11/06,23:30,23.6,68,20.1,19.6
 2003/11/06,23:45,23.5,68,20,19.7
 2003/11/07, 0:00,23.4,68,20,19.7
 2003/11/07, 0:15,23.5,67,20,19.4
 2003/11/07, 0:30,23.4,67,19.9,19.4
 2003/11/07, 0:45,23.3,67,19.9,19.7
 2003/11/07, 1:00,23.3,66,19.7,19.7
 2003/11/07, 1:15,23.2,66,19.6,19.7
 2003/11/07, 1:30,23,67,19.6,19.8
 2003/11/07, 1:45,23.1,65,19.5,19.8
 2003/11/07, 2:00,22.9,66,19.3,19.8
 2003/11/07, 2:15,22.7,66,19.2,19.8
 2003/11/07, 2:30,22.8,65,19.2,19.9
 2003/11/07, 2:45,22.6,66,19.2,19.9
 2003/11/07, 3:00,22.5,66,19.1,19.9
 2003/11/07, 3:15,22.7,65,19,19.4
 2003/11/07, 3:30,22.4,66,19,19.4
 2003/11/07, 3:45,22.3,66,18.8,19.4
 2003/11/07, 4:00,22.3,65,18.7,19.5
 2003/11/07, 4:15,22.2,66,18.7,19.5
 2003/11/07, 4:30,22,66,18.6,19.5
 2003/11/07, 4:45,22.1,65,18.5,19.5
 2003/11/07, 5:00,21.9,66,18.6,19.6
 2003/11/07, 5:15,21.9,70,18.5,19.2
 2003/11/07, 5:30,22,70,18.5,19.2
 2003/11/07, 5:45,21.9,70,18.6,19.3
 2003/11/07, 6:00,22,68,18.7,19.3
 2003/11/07, 6:15,22.1,66,18.7,19.3
 2003/11/07, 6:30,22.4,64,18.6,19.4
 2003/11/07, 6:45,22.4,65,18.6,19.6
 2003/11/07, 7:00,22.4,64,18.7,19.6
 2003/11/07, 7:15,22.2,63,18.5,19.8
 2003/11/07, 7:30,22.3,62,18.6,19.8
 2003/11/07, 7:45,22.2,60,18.8,19.8
 2003/11/07, 8:00,22,61,18.8,19.9
 2003/11/07, 8:15,21.9,62,19.2,19.9
 2003/11/07, 8:30,22.2,71,19.1,19.9
 2003/11/07, 8:45,22,64,19.4,20
 2003/11/07, 9:00,21.8,60,19.6,20
 2003/11/07, 9:15,21.7,60,20,20
 2003/11/07, 9:30,21.9,60,20.2,19.4
 2003/11/07, 9:45,22.1,59,20.5,19.5
 2003/11/07,10:00,22.2,60,20.6,19.5
 2003/11/07,10:15,22.1,61,20.7,19.5
 2003/11/07,10:30,22.3,60,20.9,19.6
 2003/11/07,10:45,22.2,60,20.9,19.6
 2003/11/07,11:00,22.2,61,20.9,19.6
 2003/11/07,11:15,22.4,60,21,19.6
 2003/11/07,11:30,22.3,60,21.1,19.7
 2003/11/07,11:45,22.3,61,21.1,19.7
 2003/11/07,12:00,22.5,60,21.2,19.7
 2003/11/07,12:15,22.4,62,21.3,19.7
 2003/11/07,12:30,22.5,61,21.3,19.8
 2003/11/07,12:45,22.6,60,21.4,19.8
 2003/11/07,13:00,22.6,60,21.5,19.8
 2003/11/07,13:15,22.6,60,21.5,19.9
 2003/11/07,13:30,22.8,60,21.6,19.9
 2003/11/07,13:45,22.6,60,21.7,19.9
 2003/11/07,14:00,22.7,60,21.7,19.9
 2003/11/07,14:15,22.8,60,21.7,20
 2003/11/07,14:30,22.7,60,21.7,20
 2003/11/07,14:45,22.9,59,21.8,20.1
 2003/11/07,15:00,22.9,60,21.8,19.5
 2003/11/07,15:15,22.9,60,21.9,19.5
 2003/11/07,15:30,23.1,59,22,19.4
 2003/11/07,15:45,23,60,21.9,19.4
 2003/11/07,16:00,23.2,59,21.9,19.5
 2003/11/07,16:15,23.2,59,21.9,19.5
 2003/11/07,16:30,23.1,59,21.9,19.6
 2003/11/07,16:45,23.4,58,21.9,19.6
 2003/11/07,17:00,23.4,59,21.9,19.7
 2003/11/07,17:15,23.2,59,21.8,19.7
 2003/11/07,17:30,23.3,59,21.8,19.7
 2003/11/07,17:45,23.2,59,21.6,19.8
 2003/11/07,18:00,23,59,21.4,19.8
 2003/11/07,18:15,23.2,59,21.3,19.9
 2003/11/07,18:30,23.4,62,21.3,19.9
 2003/11/07,18:45,23.6,60,21.1,20
 2003/11/07,19:00,23.4,60,20.9,20
 2003/11/07,19:15,23.7,63,20.8,20
 2003/11/07,19:30,23.7,67,20.7,20.1
 2003/11/07,19:45,23.9,66,20.6,20.1
 2003/11/07,20:00,24,67,20.5,20.1
 2003/11/07,20:15,23.8,69,20.5,20